sat.trackr.live / text

‹ back to catalog

STARLINK-4139

NORAD 52879 · 2022-062BB

PAYLOAD ACTIVE UNKNOWN

§ Identity

Operator
Country
US
Launch date
2022-06-17
Launch site
AFETR
Launch vehicle
Mass (kg)
RCS (m²)

Purposes: comms

External: N2YO · Heavens-Above · Gunter

§ Orbital elements

Epoch: 2026-09-20T03:12:23.611968Z

Period
93.85 min
Inclination
53.1592°
Eccentricity
0.0001716
Mean motion
15.34389686 rev/d
Perigee alt
461.6 km
Apogee alt
463.9 km
Semi-major
6,840.9 km
B*
1.9651e-5
RAAN
205.1773°
Arg perigee
87.7818°
Mean anomaly
272.3381°
Rev number
23,564

§ Raw data

STARLINK-41391 52879U 22062BB  26263.13360662  .00000287  00000+0  19651-4 0  99912 52879  53.1592 205.1773 0001716  87.7818 272.3381 15.34389686235646

JSON: /api/v1/satellites/52879 · /tle

For live sub-satellite position, see the globe view (requires WebGL).

§ Visibility from observer

Set your observer location to see the next 7 days of passes ≥ 10°. The values pass through the URL so the page stays shareable.

No JS? Fill the form by hand. The geolocation button needs JavaScript.